Time,TemperatureF,DewpointF,PressureIn,WindDirection,WindDirectionDegrees,WindSpeedMPH,WindSpeedGustMPH,Humidity,HourlyPrecipIn,Conditions,Clouds,dailyrainin,SoftwareType,DateUTC
2013-07-18 00:01:00,78.2,73.3,30.11,WSW,252,0.0,0.0,85,0.00,,,0.00,WeatherCatV1.15B25,2013-07-18 04:01:00,
2013-07-18 00:02:00,78.1,73.2,30.11,WSW,252,0.0,0.0,85,0.00,,,0.00,WeatherCatV1.15B25,2013-07-18 04:02:00,
2013-07-18 00:05:00,78.1,73.2,30.11,WSW,252,0.0,0.0,85,0.00,,,0.00,WeatherCatV1.15B25,2013-07-18 04:05:00,
2013-07-18 00:06:00,78.1,73.2,30.11,WSW,252,0.0,0.0,85,0.00,,,0.00,WeatherCatV1.15B25,2013-07-18 04:06:00,
2013-07-18 00:11:00,78.0,73.1,30.11,WSW,252,0.0,0.0,85,0.00,,,0.00,WeatherCatV1.15B25,2013-07-18 04:11:00,
2013-07-18 00:16:00,77.9,73.0,30.11,WSW,252,0.0,0.0,85,0.00,,,0.00,WeatherCatV1.15B25,2013-07-18 04:16:00,
2013-07-18 00:19:00,77.9,73.0,30.11,WSW,252,0.0,0.0,85,0.00,,,0.00,WeatherCatV1.15B25,2013-07-18 04:19:00,
2013-07-18 00:24:00,77.8,72.9,30.11,WSW,252,0.0,0.0,85,0.00,,,0.00,WeatherCatV1.15B25,2013-07-18 04:24:00,
2013-07-18 00:29:00,77.6,72.7,30.11,WSW,252,0.0,0.0,85,0.00,,,0.00,WeatherCatV1.15B25,2013-07-18 04:29:00,
2013-07-18 00:34:00,77.6,73.1,30.11,WSW,252,0.0,0.0,86,0.00,,,0.00,WeatherCatV1.15B25,2013-07-18 04:34:00,
2013-07-18 00:39:00,77.5,73.0,30.11,WSW,252,0.0,0.0,86,0.00,,,0.00,WeatherCatV1.15B25,2013-07-18 04:39:00,
2013-07-18 00:44:00,77.4,72.9,30.11,WSW,252,0.0,0.0,86,0.00,,,0.00,WeatherCatV1.15B25,2013-07-18 04:44:00,
2013-07-18 00:49:00,77.5,73.0,30.11,WSW,252,0.0,0.0,86,0.00,,,0.00,WeatherCatV1.15B25,2013-07-18 04:49:00,
2013-07-18 00:54:00,77.4,72.9,30.11,WSW,252,0.0,0.0,86,0.00,,,0.00,WeatherCatV1.15B25,2013-07-18 04:54:00,
2013-07-18 00:59:00,77.4,72.9,30.11,WSW,252,0.0,0.0,86,0.00,,,0.00,WeatherCatV1.15B25,2013-07-18 04:59:00,
2013-07-18 01:04:00,77.3,72.8,30.10,WSW,252,0.0,0.0,86,0.00,,,0.00,WeatherCatV1.15B25,2013-07-18 05:04:00,
2013-07-18 01:09:00,77.3,72.8,30.10,WSW,252,0.0,0.0,86,0.00,,,0.00,WeatherCatV1.15B25,2013-07-18 05:09:00,
2013-07-18 01:14:00,77.2,72.7,30.10,WSW,252,0.0,0.0,86,0.00,,,0.00,WeatherCatV1.15B25,2013-07-18 05:14:00,
2013-07-18 01:19:00,77.1,72.6,30.10,WSW,252,0.0,0.0,86,0.00,,,0.00,WeatherCatV1.15B25,2013-07-18 05:19:00,
2013-07-18 01:24:00,77.1,72.9,30.10,WSW,252,0.0,0.0,87,0.00,,,0.00,WeatherCatV1.15B25,2013-07-18 05:24:00,
2013-07-18 01:30:00,77.1,72.9,30.10,WSW,252,0.0,0.0,87,0.00,,,0.00,WeatherCatV1.15B25,2013-07-18 05:30:00,
2013-07-18 01:35:00,77.0,72.8,30.09,WSW,252,0.0,0.0,87,0.00,,,0.00,WeatherCatV1.15B25,2013-07-18 05:35:00,
2013-07-18 01:40:00,77.0,72.8,30.09,WSW,252,0.0,0.0,87,0.00,,,0.00,WeatherCatV1.15B25,2013-07-18 05:40:00,
2013-07-18 01:45:00,77.0,72.8,30.09,WSW,252,0.0,0.0,87,0.00,,,0.00,WeatherCatV1.15B25,2013-07-18 05:45:00,
2013-07-18 01:50:00,77.0,72.8,30.08,WSW,252,0.0,0.0,87,0.00,,,0.00,WeatherCatV1.15B25,2013-07-18 05:50:00,
2013-07-18 01:55:00,77.0,72.8,30.08,WSW,252,0.0,0.0,87,0.00,,,0.00,WeatherCatV1.15B25,2013-07-18 05:55:00,
2013-07-18 02:00:00,77.0,72.8,30.08,WSW,252,0.0,0.0,87,0.00,,,0.00,WeatherCatV1.15B25,2013-07-18 06:00:00,
2013-07-18 02:05:00,77.0,72.8,30.08,WSW,252,0.0,0.0,87,0.00,,,0.00,WeatherCatV1.15B25,2013-07-18 06:05:00,
2013-07-18 02:10:00,77.0,73.2,30.09,WSW,252,0.0,0.0,88,0.00,,,0.00,WeatherCatV1.15B25,2013-07-18 06:10:00,
2013-07-18 02:15:00,77.1,73.3,30.08,WSW,252,0.0,0.0,88,0.00,,,0.00,WeatherCatV1.15B25,2013-07-18 06:15:00,
2013-07-18 02:20:00,77.1,72.9,30.08,WSW,252,0.0,0.0,87,0.00,,,0.00,WeatherCatV1.15B25,2013-07-18 06:20:00,
2013-07-18 02:25:00,77.0,73.2,30.08,WSW,252,0.0,0.0,88,0.00,,,0.00,WeatherCatV1.15B25,2013-07-18 06:25:00,
2013-07-18 02:30:00,76.9,73.1,30.08,WSW,252,0.0,0.0,88,0.00,,,0.00,WeatherCatV1.15B25,2013-07-18 06:30:00,
2013-07-18 02:35:00,76.9,73.1,30.08,WSW,252,0.0,0.0,88,0.00,,,0.00,WeatherCatV1.15B25,2013-07-18 06:35:00,
2013-07-18 02:41:00,76.8,73.0,30.08,WSW,252,0.0,0.0,88,0.00,,,0.00,WeatherCatV1.15B25,2013-07-18 06:41:00,
2013-07-18 02:46:00,76.7,72.9,30.08,WSW,252,0.0,0.0,88,0.00,,,0.00,WeatherCatV1.15B25,2013-07-18 06:46:00,
2013-07-18 02:51:00,76.7,72.9,30.08,WSW,252,0.0,0.0,88,0.00,,,0.00,WeatherCatV1.15B25,2013-07-18 06:51:00,
2013-07-18 02:56:00,76.6,72.8,30.08,WSW,252,0.0,0.0,88,0.00,,,0.00,WeatherCatV1.15B25,2013-07-18 06:56:00,
2013-07-18 03:01:00,76.5,72.7,30.08,WSW,252,0.0,0.0,88,0.00,,,0.00,WeatherCatV1.15B25,2013-07-18 07:01:00,
2013-07-18 03:06:00,76.5,72.7,30.08,WSW,252,0.0,0.0,88,0.00,,,0.00,WeatherCatV1.15B25,2013-07-18 07:06:00,
2013-07-18 03:11:00,76.4,72.6,30.08,WSW,252,0.0,0.0,88,0.00,,,0.00,WeatherCatV1.15B25,2013-07-18 07:11:00,
2013-07-18 03:16:00,76.4,72.6,30.09,WSW,252,0.0,0.0,88,0.00,,,0.00,WeatherCatV1.15B25,2013-07-18 07:16:00,
2013-07-18 03:21:00,76.4,72.6,30.08,WSW,252,0.0,0.0,88,0.00,,,0.00,WeatherCatV1.15B25,2013-07-18 07:21:00,
2013-07-18 03:26:00,76.4,72.9,30.08,WSW,252,0.0,0.0,89,0.00,,,0.00,WeatherCatV1.15B25,2013-07-18 07:26:00,
2013-07-18 03:31:00,76.4,72.9,30.08,WSW,252,0.0,0.0,89,0.00,,,0.00,WeatherCatV1.15B25,2013-07-18 07:31:00,
2013-07-18 03:36:00,76.4,72.9,30.08,WSW,252,0.0,0.0,89,0.00,,,0.00,WeatherCatV1.15B25,2013-07-18 07:36:00,
2013-07-18 03:41:00,76.5,73.0,30.08,WSW,252,0.0,0.0,89,0.00,,,0.00,WeatherCatV1.15B25,2013-07-18 07:41:00,
2013-07-18 03:46:00,76.5,73.0,30.08,WSW,252,0.0,0.0,89,0.00,,,0.00,WeatherCatV1.15B25,2013-07-18 07:46:00,
2013-07-18 03:51:00,76.4,72.9,30.08,WSW,252,0.0,0.0,89,0.00,,,0.00,WeatherCatV1.15B25,2013-07-18 07:51:00,
2013-07-18 03:56:00,76.4,72.9,30.08,WSW,252,0.0,0.0,89,0.00,,,0.00,WeatherCatV1.15B25,2013-07-18 07:56:00,
2013-07-18 04:01:00,76.5,73.0,30.08,WSW,252,0.0,0.0,89,0.00,,,0.00,WeatherCatV1.15B25,2013-07-18 08:01:00,
2013-07-18 04:06:00,76.7,73.2,30.08,WSW,252,0.0,0.0,89,0.00,,,0.00,WeatherCatV1.15B25,2013-07-18 08:06:00,
2013-07-18 04:11:00,76.8,73.3,30.08,WSW,252,0.0,0.0,89,0.00,,,0.00,WeatherCatV1.15B25,2013-07-18 08:11:00,
2013-07-18 04:16:00,76.9,73.4,30.08,WSW,252,0.0,0.0,89,0.00,,,0.00,WeatherCatV1.15B25,2013-07-18 08:16:00,
2013-07-18 04:21:00,76.9,73.4,30.08,WSW,252,0.0,0.0,89,0.00,,,0.00,WeatherCatV1.15B25,2013-07-18 08:21:00,
2013-07-18 04:26:00,76.9,73.4,30.08,WSW,252,0.0,0.0,89,0.00,,,0.00,WeatherCatV1.15B25,2013-07-18 08:26:00,
2013-07-18 04:32:00,77.0,73.5,30.08,WSW,252,0.0,0.0,89,0.00,,,0.00,WeatherCatV1.15B25,2013-07-18 08:32:00,
2013-07-18 04:37:00,76.9,73.4,30.08,WSW,252,0.0,0.0,89,0.00,,,0.00,WeatherCatV1.15B25,2013-07-18 08:37:00,
2013-07-18 04:42:00,76.9,73.4,30.08,WSW,252,0.0,0.0,89,0.00,,,0.00,WeatherCatV1.15B25,2013-07-18 08:42:00,
2013-07-18 04:47:00,76.9,73.4,30.08,WSW,252,0.0,0.0,89,0.00,,,0.00,WeatherCatV1.15B25,2013-07-18 08:47:00,
2013-07-18 04:52:00,76.9,73.4,30.08,WSW,252,0.0,0.0,89,0.00,,,0.00,WeatherCatV1.15B25,2013-07-18 08:52:00,
2013-07-18 04:57:00,76.9,73.4,30.08,WSW,252,0.0,0.0,89,0.00,,,0.00,WeatherCatV1.15B25,2013-07-18 08:57:00,
2013-07-18 05:02:00,77.1,73.6,30.08,WSW,252,0.0,0.0,89,0.00,,,0.00,WeatherCatV1.15B25,2013-07-18 09:02:00,
2013-07-18 05:07:00,77.3,73.8,30.08,WSW,252,0.0,0.0,89,0.00,,,0.00,WeatherCatV1.15B25,2013-07-18 09:07:00,
2013-07-18 05:12:00,77.5,74.0,30.08,WSW,252,0.0,0.0,89,0.00,,,0.00,WeatherCatV1.15B25,2013-07-18 09:12:00,
2013-07-18 05:17:00,77.5,74.0,30.08,WSW,252,0.0,0.0,89,0.00,,,0.00,WeatherCatV1.15B25,2013-07-18 09:17:00,
2013-07-18 05:22:00,77.4,73.6,30.08,WSW,252,0.0,0.0,88,0.00,,,0.00,WeatherCatV1.15B25,2013-07-18 09:22:00,
2013-07-18 05:27:00,77.3,73.5,30.08,WSW,252,0.0,0.0,88,0.00,,,0.00,WeatherCatV1.15B25,2013-07-18 09:27:00,
2013-07-18 05:32:00,77.2,73.4,30.08,WSW,252,0.0,0.0,88,0.00,,,0.00,WeatherCatV1.15B25,2013-07-18 09:32:00,
2013-07-18 05:37:00,77.0,73.2,30.08,WSW,252,0.0,0.0,88,0.00,,,0.00,WeatherCatV1.15B25,2013-07-18 09:37:00,
2013-07-18 05:42:00,77.0,73.2,30.07,WSW,252,0.0,0.0,88,0.00,,,0.00,WeatherCatV1.15B25,2013-07-18 09:42:00,
2013-07-18 05:47:00,76.9,73.4,30.07,WSW,252,0.0,0.0,89,0.00,,,0.00,WeatherCatV1.15B25,2013-07-18 09:47:00,
2013-07-18 05:52:00,76.8,73.3,30.07,WSW,252,0.0,0.0,89,0.00,,,0.00,WeatherCatV1.15B25,2013-07-18 09:52:00,
2013-07-18 05:57:00,76.7,73.2,30.08,WSW,252,0.0,0.0,89,0.00,,,0.00,WeatherCatV1.15B25,2013-07-18 09:57:00,
2013-07-18 06:02:00,76.5,73.0,30.08,WSW,252,0.0,0.0,89,0.00,,,0.00,WeatherCatV1.15B25,2013-07-18 10:02:00,
2013-07-18 06:07:00,76.5,73.0,30.08,WSW,252,0.0,0.0,89,0.00,,,0.00,WeatherCatV1.15B25,2013-07-18 10:07:00,
2013-07-18 06:12:00,76.5,73.0,30.08,WSW,252,0.0,0.0,89,0.00,,,0.00,WeatherCatV1.15B25,2013-07-18 10:12:00,
2013-07-18 06:17:00,76.4,72.9,30.08,WSW,252,0.0,0.0,89,0.00,,,0.00,WeatherCatV1.15B25,2013-07-18 10:17:00,
2013-07-18 06:22:00,76.4,73.2,30.08,WSW,252,0.0,0.0,90,0.00,,,0.00,WeatherCatV1.15B25,2013-07-18 10:22:00,
2013-07-18 06:27:00,76.5,73.3,30.08,WSW,252,0.0,0.0,90,0.00,,,0.00,WeatherCatV1.15B25,2013-07-18 10:27:00,
2013-07-18 06:32:00,76.5,73.3,30.08,WSW,252,0.0,0.0,90,0.00,,,0.00,WeatherCatV1.15B25,2013-07-18 10:32:00,
2013-07-18 06:37:00,76.5,73.3,30.08,WSW,252,0.0,0.0,90,0.00,,,0.00,WeatherCatV1.15B25,2013-07-18 10:37:00,
2013-07-18 06:42:00,76.6,73.4,30.08,WSW,252,0.0,0.0,90,0.00,,,0.00,WeatherCatV1.15B25,2013-07-18 10:42:00,
2013-07-18 06:47:00,76.7,73.5,30.08,WSW,252,0.0,0.0,90,0.00,,,0.00,WeatherCatV1.15B25,2013-07-18 10:47:00,
2013-07-18 06:52:00,76.8,73.6,30.08,WSW,252,0.0,0.0,90,0.00,,,0.00,WeatherCatV1.15B25,2013-07-18 10:52:00,
2013-07-18 06:57:00,76.9,73.7,30.08,WSW,252,0.0,0.0,90,0.00,,,0.00,WeatherCatV1.15B25,2013-07-18 10:57:00,
2013-07-18 07:02:00,77.0,73.8,30.08,WSW,252,0.0,0.0,90,0.00,,,0.00,WeatherCatV1.15B25,2013-07-18 11:02:00,
2013-07-18 07:07:00,77.1,73.9,30.08,WSW,252,0.0,0.0,90,0.00,,,0.00,WeatherCatV1.15B25,2013-07-18 11:07:00,
2013-07-18 07:12:00,77.3,74.1,30.08,WSW,252,0.0,0.0,90,0.00,,,0.00,WeatherCatV1.15B25,2013-07-18 11:12:00,
2013-07-18 07:17:00,77.6,74.4,30.08,WSW,252,0.0,0.0,90,0.00,,,0.00,WeatherCatV1.15B25,2013-07-18 11:17:00,
2013-07-18 07:22:00,77.8,74.6,30.08,WSW,252,0.0,0.0,90,0.00,,,0.00,WeatherCatV1.15B25,2013-07-18 11:22:00,
2013-07-18 07:27:00,78.1,74.9,30.08,WSW,252,0.0,0.0,90,0.00,,,0.00,WeatherCatV1.15B25,2013-07-18 11:27:00,
2013-07-18 07:32:00,78.4,75.2,30.08,West,280,0.0,0.0,90,0.00,,,0.00,WeatherCatV1.15B25,2013-07-18 11:32:00,
2013-07-18 07:37:00,78.8,75.6,30.08,West,280,0.0,0.0,90,0.00,,,0.00,WeatherCatV1.15B25,2013-07-18 11:37:00,
2013-07-18 07:42:00,79.1,75.6,30.08,West,280,2.0,3.0,89,0.00,,,0.00,WeatherCatV1.15B25,2013-07-18 11:42:00,
2013-07-18 07:47:00,79.4,75.9,30.08,WSW,249,0.0,3.0,89,0.00,,,0.00,WeatherCatV1.15B25,2013-07-18 11:47:00,
2013-07-18 07:52:00,79.7,75.8,30.08,WSW,249,0.0,0.0,88,0.00,,,0.00,WeatherCatV1.15B25,2013-07-18 11:52:00,
2013-07-18 07:57:00,80.0,76.1,30.08,WSW,249,0.0,1.0,88,0.00,,,0.00,WeatherCatV1.15B25,2013-07-18 11:57:00,
2013-07-18 08:02:00,80.3,76.4,30.08,WSW,249,0.0,0.0,88,0.00,,,0.00,WeatherCatV1.15B25,2013-07-18 12:02:00,
2013-07-18 08:07:00,80.6,76.7,30.08,WSW,250,1.0,2.0,88,0.00,,,0.00,WeatherCatV1.15B25,2013-07-18 12:07:00,
2013-07-18 08:12:00,81.0,76.8,30.08,SW,217,0.0,0.0,87,0.00,,,0.00,WeatherCatV1.15B25,2013-07-18 12:12:00,
2013-07-18 08:17:00,81.5,77.2,30.08,SW,217,0.0,0.0,87,0.00,,,0.00,WeatherCatV1.15B25,2013-07-18 12:17:00,
2013-07-18 08:22:00,81.8,77.2,30.08,West,263,0.0,1.0,86,0.00,,,0.00,WeatherCatV1.15B25,2013-07-18 12:22:00,
2013-07-18 08:27:00,82.1,77.1,30.08,West,260,0.0,6.0,85,0.00,,,0.00,WeatherCatV1.15B25,2013-07-18 12:27:00,
2013-07-18 08:32:00,82.4,77.4,30.08,WSW,248,0.0,3.0,85,0.00,,,0.00,WeatherCatV1.15B25,2013-07-18 12:32:00,
2013-07-18 08:37:00,82.7,77.4,30.08,SSW,208,3.0,4.0,84,0.00,,,0.00,WeatherCatV1.15B25,2013-07-18 12:37:00,
2013-07-18 08:42:00,82.7,77.0,30.08,SW,235,3.0,4.0,83,0.00,,,0.00,WeatherCatV1.15B25,2013-07-18 12:42:00,
2013-07-18 08:47:00,82.8,77.1,30.08,West,260,2.0,2.0,83,0.00,,,0.00,WeatherCatV1.15B25,2013-07-18 12:47:00,
2013-07-18 08:52:00,82.9,76.8,30.08,WSW,246,0.0,4.0,82,0.00,,,0.00,WeatherCatV1.15B25,2013-07-18 12:52:00,
2013-07-18 08:57:00,83.0,76.9,30.08,WSW,246,0.0,4.0,82,0.00,,,0.00,WeatherCatV1.15B25,2013-07-18 12:57:00,
2013-07-18 09:02:00,83.1,77.0,30.08,WNW,293,1.0,3.0,82,0.00,,,0.00,WeatherCatV1.15B25,2013-07-18 13:02:00,
2013-07-18 09:07:00,83.1,76.6,30.08,SW,221,4.0,6.0,81,0.00,,,0.00,WeatherCatV1.15B25,2013-07-18 13:07:00,
2013-07-18 09:12:00,83.1,76.6,30.08,West,260,1.0,6.0,81,0.00,,,0.00,WeatherCatV1.15B25,2013-07-18 13:12:00,
2013-07-18 09:17:00,83.1,76.3,30.08,WNW,284,1.0,6.0,80,0.00,,,0.00,WeatherCatV1.15B25,2013-07-18 13:17:00,
2013-07-18 09:22:00,83.2,76.7,30.08,WSW,250,2.0,2.0,81,0.00,,,0.00,WeatherCatV1.15B25,2013-07-18 13:22:00,
2013-07-18 09:27:00,83.5,77.0,30.08,SW,232,4.0,5.0,81,0.00,,,0.00,WeatherCatV1.15B25,2013-07-18 13:27:00,
2013-07-18 09:32:00,83.7,77.2,30.08,West,263,0.0,3.0,81,0.00,,,0.00,WeatherCatV1.15B25,2013-07-18 13:32:00,
2013-07-18 09:37:00,84.2,77.7,30.08,SW,221,0.0,1.0,81,0.00,,,0.00,WeatherCatV1.15B25,2013-07-18 13:37:00,
2013-07-18 09:42:00,84.1,77.2,30.08,WSW,254,0.0,3.0,80,0.00,,,0.00,WeatherCatV1.15B25,2013-07-18 13:42:00,
2013-07-18 09:47:00,84.1,77.2,30.08,WSW,246,1.0,4.0,80,0.00,,,0.00,WeatherCatV1.15B25,2013-07-18 13:47:00,
2013-07-18 09:52:00,83.9,77.0,30.08,SW,221,1.0,2.0,80,0.00,,,0.00,WeatherCatV1.15B25,2013-07-18 13:52:00,
2013-07-18 09:57:00,84.0,77.5,30.08,WNW,286,0.0,0.0,81,0.00,,,0.00,WeatherCatV1.15B25,2013-07-18 13:57:00,
2013-07-18 10:02:00,84.0,76.8,30.08,WSW,245,4.0,4.0,79,0.00,,,0.00,WeatherCatV1.15B25,2013-07-18 14:02:00,
2013-07-18 10:07:00,83.8,76.6,30.08,SW,233,1.0,5.0,79,0.00,,,0.00,WeatherCatV1.15B25,2013-07-18 14:07:00,
2013-07-18 10:13:00,84.0,77.1,30.08,SW,227,2.0,5.0,80,0.00,,,0.00,WeatherCatV1.15B25,2013-07-18 14:13:00,
2013-07-18 10:18:00,83.9,77.0,30.08,WSW,240,5.0,6.0,80,0.00,,,0.00,WeatherCatV1.15B25,2013-07-18 14:18:00,
2013-07-18 10:23:00,83.6,76.4,30.08,West,266,3.0,5.0,79,0.00,,,0.00,WeatherCatV1.15B25,2013-07-18 14:23:00,
2013-07-18 10:28:00,83.5,76.3,30.08,SW,222,0.0,6.0,79,0.00,,,0.00,WeatherCatV1.15B25,2013-07-18 14:28:00,
2013-07-18 10:33:00,83.7,76.5,30.08,West,269,2.0,3.0,79,0.00,,,0.00,WeatherCatV1.15B25,2013-07-18 14:33:00,
2013-07-18 10:38:00,83.9,76.7,30.08,West,279,3.0,5.0,79,0.00,,,0.00,WeatherCatV1.15B25,2013-07-18 14:38:00,
2013-07-18 10:43:00,83.9,75.9,30.08,WSW,244,4.0,5.0,77,0.00,,,0.00,WeatherCatV1.15B25,2013-07-18 14:43:00,
2013-07-18 10:48:00,83.9,75.9,30.08,WSW,244,2.0,7.0,77,0.00,,,0.00,WeatherCatV1.15B25,2013-07-18 14:48:00,
2013-07-18 10:53:00,83.7,75.3,30.08,SW,236,3.0,6.0,76,0.00,,,0.00,WeatherCatV1.15B25,2013-07-18 14:53:00,
2013-07-18 10:58:00,83.8,75.8,30.08,SW,225,3.0,5.0,77,0.00,,,0.00,WeatherCatV1.15B25,2013-07-18 14:58:00,
2013-07-18 11:03:00,84.1,75.3,30.08,SSW,209,5.0,10.0,75,0.00,,,0.00,WeatherCatV1.15B25,2013-07-18 15:03:00,
2013-07-18 11:08:00,84.0,76.0,30.08,SW,221,5.0,5.0,77,0.00,,,0.00,WeatherCatV1.15B25,2013-07-18 15:08:00,
2013-07-18 11:13:00,84.2,76.2,30.08,SW,218,4.0,5.0,77,0.00,,,0.00,WeatherCatV1.15B25,2013-07-18 15:13:00,
2013-07-18 11:19:00,84.3,76.3,30.08,SW,215,2.0,7.0,77,0.00,,,0.00,WeatherCatV1.15B25,2013-07-18 15:19:00,
2013-07-18 11:24:00,84.4,76.0,30.08,WSW,244,2.0,4.0,76,0.00,,,0.00,WeatherCatV1.15B25,2013-07-18 15:24:00,
2013-07-18 11:29:00,84.5,76.1,30.08,West,268,4.0,5.0,76,0.00,,,0.00,WeatherCatV1.15B25,2013-07-18 15:29:00,
2013-07-18 11:34:00,84.2,75.4,30.08,SSW,209,5.0,8.0,75,0.00,,,0.00,WeatherCatV1.15B25,2013-07-18 15:34:00,
2013-07-18 11:39:00,84.0,76.0,30.08,WSW,245,4.0,7.0,77,0.00,,,0.00,WeatherCatV1.15B25,2013-07-18 15:39:00,
2013-07-18 11:44:00,84.2,75.8,30.08,SW,215,3.0,6.0,76,0.00,,,0.00,WeatherCatV1.15B25,2013-07-18 15:44:00,
2013-07-18 11:49:00,84.1,75.7,30.08,SW,229,4.0,5.0,76,0.00,,,0.00,WeatherCatV1.15B25,2013-07-18 15:49:00,
2013-07-18 11:54:00,84.4,76.4,30.08,WSW,243,4.0,7.0,77,0.00,,,0.00,WeatherCatV1.15B25,2013-07-18 15:54:00,
2013-07-18 11:59:00,84.6,76.6,30.08,West,264,6.0,7.0,77,0.00,,,0.00,WeatherCatV1.15B25,2013-07-18 15:59:00,
2013-07-18 12:04:00,84.5,76.9,30.08,SW,223,4.0,6.0,78,0.00,,,0.00,WeatherCatV1.15B25,2013-07-18 16:04:00,
2013-07-18 12:09:00,85.2,77.5,30.08,West,273,2.0,4.0,78,0.00,,,0.00,WeatherCatV1.15B25,2013-07-18 16:09:00,
2013-07-18 12:14:00,84.7,77.1,30.08,SW,215,3.0,5.0,78,0.00,,,0.00,WeatherCatV1.15B25,2013-07-18 16:14:00,
2013-07-18 12:19:00,84.9,78.0,30.08,WNW,288,5.0,5.0,80,0.00,,,0.00,WeatherCatV1.15B25,2013-07-18 16:19:00,
2013-07-18 12:24:00,84.5,76.9,30.08,WSW,254,3.0,5.0,78,0.00,,,0.00,WeatherCatV1.15B25,2013-07-18 16:24:00,
2013-07-18 12:29:00,84.2,76.2,30.08,WSW,246,3.0,7.0,77,0.00,,,0.00,WeatherCatV1.15B25,2013-07-18 16:29:00,
2013-07-18 12:34:00,84.3,77.1,30.08,WSW,239,3.0,4.0,79,0.00,,,0.00,WeatherCatV1.15B25,2013-07-18 16:34:00,
2013-07-18 12:39:00,84.7,76.7,30.08,SW,230,4.0,6.0,77,0.00,,,0.00,WeatherCatV1.15B25,2013-07-18 16:39:00,
2013-07-18 12:44:00,85.2,77.5,30.08,West,269,1.0,3.0,78,0.00,,,0.00,WeatherCatV1.15B25,2013-07-18 16:44:00,
2013-07-18 12:49:00,84.9,76.1,30.08,West,259,3.0,6.0,75,0.00,,,0.00,WeatherCatV1.15B25,2013-07-18 16:49:00,
2013-07-18 12:54:00,85.2,77.5,30.08,WSW,241,4.0,5.0,78,0.00,,,0.00,WeatherCatV1.15B25,2013-07-18 16:54:00,
2013-07-18 12:59:00,84.9,76.9,30.08,SW,227,3.0,6.0,77,0.00,,,0.00,WeatherCatV1.15B25,2013-07-18 16:59:00,
2013-07-18 13:04:00,85.0,77.3,30.08,WNW,289,2.0,5.0,78,0.00,,,0.00,WeatherCatV1.15B25,2013-07-18 17:04:00,
2013-07-18 13:09:00,85.2,76.8,30.07,SW,227,3.0,5.0,76,0.00,,,0.00,WeatherCatV1.15B25,2013-07-18 17:09:00,
2013-07-18 13:14:00,84.9,76.9,30.07,WSW,258,2.0,6.0,77,0.00,,,0.00,WeatherCatV1.15B25,2013-07-18 17:14:00,
2013-07-18 13:19:00,85.1,76.7,30.07,SW,232,2.0,10.0,76,0.00,,,0.00,WeatherCatV1.15B25,2013-07-18 17:19:00,
2013-07-18 13:24:00,85.6,77.1,30.07,WNW,293,3.0,4.0,76,0.00,,,0.00,WeatherCatV1.15B25,2013-07-18 17:24:00,
2013-07-18 13:29:00,85.4,76.9,30.07,WSW,257,3.0,6.0,76,0.00,,,0.00,WeatherCatV1.15B25,2013-07-18 17:29:00,
2013-07-18 13:34:00,85.2,76.8,30.07,West,276,5.0,6.0,76,0.00,,,0.00,WeatherCatV1.15B25,2013-07-18 17:34:00,
2013-07-18 13:39:00,85.5,76.6,30.07,SW,215,5.0,8.0,75,0.00,,,0.00,WeatherCatV1.15B25,2013-07-18 17:39:00,
2013-07-18 13:44:00,85.1,76.3,30.06,SW,225,6.0,6.0,75,0.00,,,0.00,WeatherCatV1.15B25,2013-07-18 17:44:00,
2013-07-18 13:49:00,85.4,76.5,30.06,WNW,300,5.0,9.0,75,0.00,,,0.00,WeatherCatV1.15B25,2013-07-18 17:49:00,
2013-07-18 13:54:00,85.5,76.2,30.06,SW,229,5.0,6.0,74,0.00,,,0.00,WeatherCatV1.15B25,2013-07-18 17:54:00,
2013-07-18 13:59:00,86.1,76.8,30.05,WSW,250,4.0,6.0,74,0.00,,,0.00,WeatherCatV1.15B25,2013-07-18 17:59:00,
2013-07-18 14:04:00,85.8,75.7,30.05,West,279,2.0,6.0,72,0.00,,,0.00,WeatherCatV1.15B25,2013-07-18 18:04:00,
2013-07-18 14:09:00,85.8,76.1,30.05,WSW,247,5.0,9.0,73,0.00,,,0.00,WeatherCatV1.15B25,2013-07-18 18:09:00,
2013-07-18 14:14:00,85.7,76.0,30.05,WNW,288,3.0,6.0,73,0.00,,,0.00,WeatherCatV1.15B25,2013-07-18 18:14:00,
2013-07-18 14:19:00,85.6,75.1,30.05,WSW,238,8.0,9.0,71,0.00,,,0.00,WeatherCatV1.15B25,2013-07-18 18:19:00,
2013-07-18 14:24:00,85.6,75.5,30.05,WNW,298,2.0,10.0,72,0.00,,,0.00,WeatherCatV1.15B25,2013-07-18 18:24:00,
2013-07-18 14:29:00,86.0,75.9,30.05,West,271,3.0,7.0,72,0.00,,,0.00,WeatherCatV1.15B25,2013-07-18 18:29:00,
2013-07-18 14:34:00,86.5,75.9,30.05,WNW,298,3.0,9.0,71,0.00,,,0.00,WeatherCatV1.15B25,2013-07-18 18:34:00,
2013-07-18 14:39:00,86.5,75.9,30.05,SW,236,3.0,4.0,71,0.00,,,0.00,WeatherCatV1.15B25,2013-07-18 18:39:00,
2013-07-18 14:44:00,86.8,75.8,30.04,West,269,2.0,4.0,70,0.00,,,0.00,WeatherCatV1.15B25,2013-07-18 18:44:00,
2013-07-18 14:49:00,87.1,74.3,30.04,WSW,252,5.0,7.0,66,0.00,,,0.00,WeatherCatV1.15B25,2013-07-18 18:49:00,
2013-07-18 14:54:00,87.4,75.9,30.04,West,264,3.0,5.0,69,0.00,,,0.00,WeatherCatV1.15B25,2013-07-18 18:54:00,
2013-07-18 14:59:00,87.6,75.3,30.04,West,272,4.0,4.0,67,0.00,,,0.00,WeatherCatV1.15B25,2013-07-18 18:59:00,
2013-07-18 15:04:00,87.3,74.5,30.04,WSW,246,4.0,4.0,66,0.00,,,0.00,WeatherCatV1.15B25,2013-07-18 19:04:00,
2013-07-18 15:09:00,87.3,74.5,30.04,WNW,287,1.0,7.0,66,0.00,,,0.00,WeatherCatV1.15B25,2013-07-18 19:09:00,
2013-07-18 15:14:00,87.0,74.2,30.03,NW,307,9.0,9.0,66,0.00,,,0.00,WeatherCatV1.15B25,2013-07-18 19:14:00,
2013-07-18 15:19:00,86.7,74.4,30.03,West,261,5.0,5.0,67,0.00,,,0.00,WeatherCatV1.15B25,2013-07-18 19:19:00,
2013-07-18 15:25:00,87.3,75.4,30.02,WSW,243,2.0,4.0,68,0.00,,,0.00,WeatherCatV1.15B25,2013-07-18 19:25:00,
2013-07-18 15:30:00,87.6,75.3,30.02,WSW,246,2.0,5.0,67,0.00,,,0.00,WeatherCatV1.15B25,2013-07-18 19:30:00,
2013-07-18 15:35:00,87.7,74.9,30.02,WNW,283,3.0,4.0,66,0.00,,,0.00,WeatherCatV1.15B25,2013-07-18 19:35:00,
2013-07-18 15:40:00,87.5,74.2,30.02,SW,219,6.0,7.0,65,0.00,,,0.00,WeatherCatV1.15B25,2013-07-18 19:40:00,
2013-07-18 15:45:00,87.6,73.4,30.02,SW,219,4.0,9.0,63,0.00,,,0.00,WeatherCatV1.15B25,2013-07-18 19:45:00,
2013-07-18 15:50:00,87.3,73.6,30.02,West,272,4.0,8.0,64,0.00,,,0.00,WeatherCatV1.15B25,2013-07-18 19:50:00,
2013-07-18 15:55:00,87.2,74.0,30.02,SW,217,2.0,9.0,65,0.00,,,0.00,WeatherCatV1.15B25,2013-07-18 19:55:00,
2013-07-18 16:00:00,87.3,73.6,30.01,WNW,282,2.0,5.0,64,0.00,,,0.00,WeatherCatV1.15B25,2013-07-18 20:00:00,
2013-07-18 16:06:00,87.2,74.4,30.01,SW,214,4.0,7.0,66,0.00,,,0.00,WeatherCatV1.15B25,2013-07-18 20:06:00,
2013-07-18 16:11:00,87.3,74.5,30.01,SW,220,4.0,6.0,66,0.00,,,0.00,WeatherCatV1.15B25,2013-07-18 20:11:00,
2013-07-18 16:16:00,87.4,75.5,30.00,SW,217,5.0,9.0,68,0.00,,,0.00,WeatherCatV1.15B25,2013-07-18 20:16:00,
2013-07-18 16:21:00,87.9,76.0,30.00,WNW,291,6.0,6.0,68,0.00,,,0.00,WeatherCatV1.15B25,2013-07-18 20:21:00,
2013-07-18 16:26:00,87.8,74.5,30.00,SSW,213,3.0,6.0,65,0.00,,,0.00,WeatherCatV1.15B25,2013-07-18 20:26:00,
2013-07-18 16:31:00,88.0,74.7,30.00,SSW,213,5.0,6.0,65,0.00,,,0.00,WeatherCatV1.15B25,2013-07-18 20:31:00,
2013-07-18 16:36:00,88.2,74.4,30.00,WNW,300,2.0,6.0,64,0.00,,,0.00,WeatherCatV1.15B25,2013-07-18 20:36:00,
2013-07-18 16:41:00,88.1,74.4,30.00,WNW,287,2.0,5.0,64,0.00,,,0.00,WeatherCatV1.15B25,2013-07-18 20:41:00,
2013-07-18 16:46:00,88.2,74.9,30.00,WNW,300,3.0,5.0,65,0.00,,,0.00,WeatherCatV1.15B25,2013-07-18 20:46:00,
2013-07-18 16:51:00,88.4,75.1,30.00,WSW,246,3.0,5.0,65,0.00,,,0.00,WeatherCatV1.15B25,2013-07-18 20:51:00,
2013-07-18 16:56:00,88.3,75.5,30.00,West,273,3.0,4.0,66,0.00,,,0.00,WeatherCatV1.15B25,2013-07-18 20:56:00,
2013-07-18 17:01:00,88.4,74.6,30.00,SW,223,4.0,8.0,64,0.00,,,0.00,WeatherCatV1.15B25,2013-07-18 21:01:00,
2013-07-18 17:06:00,88.3,74.1,30.00,SW,234,6.0,6.0,63,0.00,,,0.00,WeatherCatV1.15B25,2013-07-18 21:06:00,
2013-07-18 17:11:00,88.0,74.3,30.00,SW,215,3.0,8.0,64,0.00,,,0.00,WeatherCatV1.15B25,2013-07-18 21:11:00,
2013-07-18 17:16:00,87.8,74.5,30.00,SW,216,4.0,9.0,65,0.00,,,0.00,WeatherCatV1.15B25,2013-07-18 21:16:00,
2013-07-18 17:21:00,88.0,74.7,29.99,West,271,2.0,3.0,65,0.00,,,0.00,WeatherCatV1.15B25,2013-07-18 21:21:00,
2013-07-18 17:26:00,88.0,74.7,30.00,SSW,211,5.0,7.0,65,0.00,,,0.00,WeatherCatV1.15B25,2013-07-18 21:26:00,
2013-07-18 17:31:00,87.9,74.6,29.99,WSW,246,5.0,6.0,65,0.00,,,0.00,WeatherCatV1.15B25,2013-07-18 21:31:00,
2013-07-18 17:36:00,87.9,74.6,29.99,WSW,249,3.0,9.0,65,0.00,,,0.00,WeatherCatV1.15B25,2013-07-18 21:36:00,
2013-07-18 17:41:00,87.8,74.1,29.99,West,274,5.0,5.0,64,0.00,,,0.00,WeatherCatV1.15B25,2013-07-18 21:41:00,
2013-07-18 17:46:00,87.9,73.2,29.99,WSW,239,3.0,6.0,62,0.00,,,0.00,WeatherCatV1.15B25,2013-07-18 21:46:00,
2013-07-18 17:51:00,88.3,74.1,29.99,West,276,5.0,7.0,63,0.00,,,0.00,WeatherCatV1.15B25,2013-07-18 21:51:00,
2013-07-18 17:56:00,88.2,73.5,29.99,SW,235,5.0,6.0,62,0.00,,,0.00,WeatherCatV1.15B25,2013-07-18 21:56:00,
2013-07-18 18:01:00,88.6,73.9,29.98,West,264,5.0,5.0,62,0.00,,,0.00,WeatherCatV1.15B25,2013-07-18 22:01:00,
2013-07-18 18:06:00,88.9,73.7,29.98,West,266,3.0,3.0,61,0.00,,,0.00,WeatherCatV1.15B25,2013-07-18 22:06:00,
2013-07-18 18:11:00,89.1,73.4,29.98,WNW,299,1.0,6.0,60,0.00,,,0.00,WeatherCatV1.15B25,2013-07-18 22:11:00,
2013-07-18 18:16:00,89.2,73.5,29.98,West,277,1.0,4.0,60,0.00,,,0.00,WeatherCatV1.15B25,2013-07-18 22:16:00,
2013-07-18 18:21:00,89.1,72.9,29.98,West,273,2.0,5.0,59,0.00,,,0.00,WeatherCatV1.15B25,2013-07-18 22:21:00,
2013-07-18 18:26:00,88.9,73.7,29.97,SW,219,3.0,3.0,61,0.00,,,0.00,WeatherCatV1.15B25,2013-07-18 22:26:00,
2013-07-18 18:31:00,89.0,73.3,29.97,WSW,246,1.0,3.0,60,0.00,,,0.00,WeatherCatV1.15B25,2013-07-18 22:31:00,
2013-07-18 18:36:00,89.2,73.5,29.97,WNW,284,1.0,3.0,60,0.00,,,0.00,WeatherCatV1.15B25,2013-07-18 22:36:00,
2013-07-18 18:42:00,89.5,74.7,29.97,WSW,252,2.0,2.0,62,0.00,,,0.00,WeatherCatV1.15B25,2013-07-18 22:42:00,
2013-07-18 18:47:00,89.6,73.8,29.97,SW,236,0.0,1.0,60,0.00,,,0.00,WeatherCatV1.15B25,2013-07-18 22:47:00,
2013-07-18 18:52:00,89.5,73.2,29.97,SSW,205,1.0,3.0,59,0.00,,,0.00,WeatherCatV1.15B25,2013-07-18 22:52:00,
2013-07-18 18:57:00,89.6,73.3,29.97,WSW,251,0.0,3.0,59,0.00,,,0.00,WeatherCatV1.15B25,2013-07-18 22:57:00,
2013-07-18 19:02:00,89.7,73.4,29.97,WSW,251,1.0,2.0,59,0.00,,,0.00,WeatherCatV1.15B25,2013-07-18 23:02:00,
2013-07-18 19:07:00,89.8,73.5,29.98,WSW,253,1.0,2.0,59,0.00,,,0.00,WeatherCatV1.15B25,2013-07-18 23:07:00,
2013-07-18 19:12:00,89.7,73.4,29.98,WSW,254,0.0,2.0,59,0.00,,,0.00,WeatherCatV1.15B25,2013-07-18 23:12:00,
2013-07-18 19:17:00,89.6,73.8,29.98,WSW,253,2.0,2.0,60,0.00,,,0.00,WeatherCatV1.15B25,2013-07-18 23:17:00,
2013-07-18 19:22:00,89.5,73.7,29.98,WSW,238,1.0,2.0,60,0.00,,,0.00,WeatherCatV1.15B25,2013-07-18 23:22:00,
2013-07-18 19:27:00,89.1,72.9,29.98,WSW,256,1.0,4.0,59,0.00,,,0.00,WeatherCatV1.15B25,2013-07-18 23:27:00,
2013-07-18 19:32:00,88.5,73.8,29.98,WSW,256,2.0,2.0,62,0.00,,,0.00,WeatherCatV1.15B25,2013-07-18 23:32:00,
2013-07-18 19:37:00,88.0,74.3,29.99,West,272,0.0,0.0,64,0.00,,,0.00,WeatherCatV1.15B25,2013-07-18 23:37:00,
2013-07-18 19:42:00,87.5,73.8,29.98,West,272,0.0,1.0,64,0.00,,,0.00,WeatherCatV1.15B25,2013-07-18 23:42:00,
2013-07-18 19:47:00,87.3,73.6,29.97,West,272,0.0,2.0,64,0.00,,,0.00,WeatherCatV1.15B25,2013-07-18 23:47:00,
2013-07-18 19:52:00,87.1,73.9,29.97,West,272,0.0,0.0,65,0.00,,,0.00,WeatherCatV1.15B25,2013-07-18 23:52:00,
2013-07-18 19:57:00,87.0,74.2,29.96,North,5,0.0,0.0,66,0.00,,,0.00,WeatherCatV1.15B25,2013-07-18 23:57:00,
2013-07-18 20:02:00,86.6,73.9,29.96,North,5,0.0,0.0,66,0.00,,,0.00,WeatherCatV1.15B25,2013-07-19 00:02:00,
2013-07-18 20:07:00,86.2,74.4,29.96,North,5,0.0,0.0,68,0.00,,,0.00,WeatherCatV1.15B25,2013-07-19 00:07:00,
2013-07-18 20:12:00,85.7,73.4,29.95,North,5,0.0,0.0,67,0.00,,,0.00,WeatherCatV1.15B25,2013-07-19 00:12:00,
2013-07-18 20:17:00,85.3,73.9,29.95,North,0,0.0,0.0,69,0.00,,,0.00,WeatherCatV1.15B25,2013-07-19 00:17:00,
2013-07-18 20:22:00,84.8,73.5,29.95,North,0,0.0,0.0,69,0.00,,,0.00,WeatherCatV1.15B25,2013-07-19 00:22:00,
2013-07-18 20:27:00,84.3,73.4,29.95,North,0,0.0,0.0,70,0.00,,,0.00,WeatherCatV1.15B25,2013-07-19 00:27:00,
2013-07-18 20:32:00,84.0,74.0,29.95,North,5,0.0,0.0,72,0.00,,,0.00,WeatherCatV1.15B25,2013-07-19 00:32:00,
2013-07-18 20:37:00,83.6,73.6,29.95,North,5,0.0,0.0,72,0.00,,,0.00,WeatherCatV1.15B25,2013-07-19 00:37:00,
2013-07-18 20:43:00,83.4,73.4,29.94,North,5,0.0,0.0,72,0.00,,,0.00,WeatherCatV1.15B25,2013-07-19 00:43:00,
2013-07-18 20:48:00,83.1,73.5,29.94,North,0,0.0,0.0,73,0.00,,,0.00,WeatherCatV1.15B25,2013-07-19 00:48:00,
2013-07-18 20:53:00,82.8,73.6,29.94,North,5,0.0,0.0,74,0.00,,,0.00,WeatherCatV1.15B25,2013-07-19 00:53:00,
2013-07-18 20:58:00,82.4,73.7,29.94,North,0,0.0,0.0,75,0.00,,,0.00,WeatherCatV1.15B25,2013-07-19 00:58:00,
2013-07-18 21:03:00,82.0,73.7,29.94,North,0,0.0,0.0,76,0.00,,,0.00,WeatherCatV1.15B25,2013-07-19 01:03:00,
2013-07-18 21:08:00,81.8,73.1,29.94,North,5,0.0,0.0,75,0.00,,,0.00,WeatherCatV1.15B25,2013-07-19 01:08:00,
2013-07-18 21:13:00,81.6,73.7,29.94,North,5,0.0,0.0,77,0.00,,,0.00,WeatherCatV1.15B25,2013-07-19 01:13:00,
2013-07-18 21:18:00,81.4,73.5,29.95,North,5,0.0,0.0,77,0.00,,,0.00,WeatherCatV1.15B25,2013-07-19 01:18:00,
2013-07-18 21:23:00,81.3,73.4,29.94,North,0,0.0,0.0,77,0.00,,,0.00,WeatherCatV1.15B25,2013-07-19 01:23:00,
2013-07-18 21:28:00,81.2,72.9,29.95,North,5,0.0,0.0,76,0.00,,,0.00,WeatherCatV1.15B25,2013-07-19 01:28:00,
2013-07-18 21:33:00,81.1,73.2,29.95,North,5,0.0,0.0,77,0.00,,,0.00,WeatherCatV1.15B25,2013-07-19 01:33:00,
2013-07-18 21:38:00,80.9,73.4,29.95,North,0,0.0,0.0,78,0.00,,,0.00,WeatherCatV1.15B25,2013-07-19 01:38:00,
2013-07-18 21:43:00,80.6,73.1,29.95,North,5,0.0,0.0,78,0.00,,,0.00,WeatherCatV1.15B25,2013-07-19 01:43:00,
2013-07-18 21:48:00,80.5,73.0,29.95,North,5,0.0,0.0,78,0.00,,,0.00,WeatherCatV1.15B25,2013-07-19 01:48:00,
2013-07-18 21:53:00,80.4,72.9,29.95,North,5,0.0,0.0,78,0.00,,,0.00,WeatherCatV1.15B25,2013-07-19 01:53:00,
2013-07-18 21:58:00,80.4,72.9,29.95,North,5,0.0,0.0,78,0.00,,,0.00,WeatherCatV1.15B25,2013-07-19 01:58:00,
2013-07-18 22:03:00,80.5,73.4,29.96,North,5,0.0,0.0,79,0.00,,,0.00,WeatherCatV1.15B25,2013-07-19 02:03:00,
2013-07-18 22:08:00,80.3,72.8,29.95,North,5,0.0,0.0,78,0.00,,,0.00,WeatherCatV1.15B25,2013-07-19 02:08:00,
2013-07-18 22:13:00,80.3,73.2,29.95,North,0,0.0,0.0,79,0.00,,,0.00,WeatherCatV1.15B25,2013-07-19 02:13:00,
2013-07-18 22:18:00,80.2,73.1,29.95,North,0,0.0,0.0,79,0.00,,,0.00,WeatherCatV1.15B25,2013-07-19 02:18:00,
2013-07-18 22:23:00,80.1,73.0,29.95,North,5,0.0,0.0,79,0.00,,,0.00,WeatherCatV1.15B25,2013-07-19 02:23:00,
2013-07-18 22:28:00,80.0,72.9,29.95,North,5,0.0,0.0,79,0.00,,,0.00,WeatherCatV1.15B25,2013-07-19 02:28:00,
2013-07-18 22:33:00,80.0,73.3,29.95,North,5,0.0,0.0,80,0.00,,,0.00,WeatherCatV1.15B25,2013-07-19 02:33:00,
2013-07-18 22:38:00,79.9,72.8,29.95,North,0,0.0,0.0,79,0.00,,,0.00,WeatherCatV1.15B25,2013-07-19 02:38:00,
2013-07-18 22:43:00,79.8,73.1,29.95,North,5,0.0,0.0,80,0.00,,,0.00,WeatherCatV1.15B25,2013-07-19 02:43:00,
2013-07-18 22:48:00,79.7,73.0,29.94,North,5,0.0,0.0,80,0.00,,,0.00,WeatherCatV1.15B25,2013-07-19 02:48:00,
2013-07-18 22:53:00,79.7,73.3,29.95,North,5,0.0,0.0,81,0.00,,,0.00,WeatherCatV1.15B25,2013-07-19 02:53:00,
2013-07-18 22:58:00,79.5,73.1,29.95,North,0,0.0,0.0,81,0.00,,,0.00,WeatherCatV1.15B25,2013-07-19 02:58:00,
2013-07-18 23:03:00,79.4,73.0,29.94,North,5,0.0,0.0,81,0.00,,,0.00,WeatherCatV1.15B25,2013-07-19 03:03:00,
2013-07-18 23:08:00,79.3,72.9,29.94,North,0,0.0,0.0,81,0.00,,,0.00,WeatherCatV1.15B25,2013-07-19 03:08:00,
2013-07-18 23:14:00,79.3,73.3,29.94,North,5,0.0,0.0,82,0.00,,,0.00,WeatherCatV1.15B25,2013-07-19 03:14:00,
2013-07-18 23:19:00,79.2,72.8,29.94,North,0,0.0,0.0,81,0.00,,,0.00,WeatherCatV1.15B25,2013-07-19 03:19:00,
2013-07-18 23:24:00,79.1,72.8,29.94,North,5,0.0,0.0,81,0.00,,,0.00,WeatherCatV1.15B25,2013-07-19 03:24:00,
2013-07-18 23:29:00,79.0,73.0,29.94,North,5,0.0,0.0,82,0.00,,,0.00,WeatherCatV1.15B25,2013-07-19 03:29:00,
2013-07-18 23:34:00,78.9,72.9,29.94,North,5,0.0,0.0,82,0.00,,,0.00,WeatherCatV1.15B25,2013-07-19 03:34:00,
2013-07-18 23:39:00,78.8,72.5,29.94,North,0,0.0,0.0,81,0.00,,,0.00,WeatherCatV1.15B25,2013-07-19 03:39:00,
2013-07-18 23:44:00,78.9,72.9,29.94,North,5,0.0,0.0,82,0.00,,,0.00,WeatherCatV1.15B25,2013-07-19 03:44:00,
2013-07-18 23:49:00,78.8,72.8,29.94,North,5,0.0,0.0,82,0.00,,,0.00,WeatherCatV1.15B25,2013-07-19 03:49:00,
2013-07-18 23:54:00,78.8,72.5,29.94,North,0,0.0,0.0,81,0.00,,,0.00,WeatherCatV1.15B25,2013-07-19 03:54:00,
2013-07-18 23:59:00,78.8,72.8,29.94,North,5,0.0,0.0,82,0.00,,,0.00,WeatherCatV1.15B25,2013-07-19 03:59:00,